Location: ?
(35.3544°N, 139.4507°E)
Time: 07:19:30
(UTC+00:00)

COSMOS 2455 - Pass Details

Date: 03 August 2024
Orbit: 898 x 911 km, 67.2° (Epoch: 10 September)

Event Time Altitude Azimuth Distance (km) Brightness Sun altitude
Rises 12:42:11 0° 326° (NNW) 3,545 7.2 -29.5°
Reaches altitude 10° 12:44:47 10° 321° (NW) 2,600 6.2 -29.8°
Maximum altitude 12:50:29 46° 250° (WSW) 1,209 3.5 -30.4°
Enters shadow 12:50:31 46° 249° (WSW) 1,209 3.5 -30.4°
